"Pseudo-MPEC" for P10Lckm

Created 2019 Jan 12 22:18:20 UT using Find_Orb

Click here for an explanation of pseudo-MPECs

 
 Astrometry: 
     P10Lckm  C2019 01 08sKPibXjyGGRLHxBUk`%WjAstrometrylLqnPIL?wwI@9'0mNWE%wF51
     P10Lckm  C2019 01 08yee6ENfn_kQ.1E5v8=S7r34om(7Bk-eqCdEcYyH$PVjuEfgcsX[,F51
     P10Lckm  C2019 01 08)f^I7[36yl5GKfX;;W[]@T;U;b9ok5Euredacted;U]xm?1]rXs?F51
     P10Lckm |C2019 01 093k]A-9\I,+ouQDQ4Bx-S[%1.ynG*FVmYGQ!.D7XPC'LtKWbGUJTj807
     P10Lckm |C2019 01 093[VZ:$1o2U-D`PK2$Pifwx6RB@ruH`v5ARp60'+C78Aclickwhmc807
     P10Lckm |C2019 01 09#[wSV9R55*_K;AV82IYckL8$2%Sp\hPZA,448##CcN8*_Pbc%Sj+807
     P10Lckm |C2019 01 10-CqAXU,JX0GA8_%Qiu9-Tmw_8yVcTwpQI7o[l!+$eSF$here8%/\807
     P10Lckm |C2019 01 10oT?%qM#g$XMaJ(l)HEOL8.5N/^=?T74c09Z]pH;vZB]_J*hr)=xA807
     P10Lckm |C2019 01 10T'WBjg[Jfor$,L?(-a@lfJZ8SQkOV%xE+?y2PuV1'B=-y:#?`Cit807
     P10Lckm KC2019 01 12,J'7C[$tVZlg;4^IP^=.#XQGRgDX:p:tulVplgP^.FLmo#QfeTD!291
     P10Lckm KC2019 01 12#yjxkb/;.vEl*kw`u(M`7qWlHalW9aZl+37GBRUrx!i@T*o61VM\291
     P10Lckm KC2019 01 12gMQ43dKZexplanation`$jXk4EeBO[Y:k`wXZ(,FxMNOaam3u-k?291

Station data:
(291) LPL/Spacewatch II  (N31.961669 W111.599905)  US/Arizona.  Observers J.
   V. Scotti, R. S. McMillan. 1.8-m f/2.7 reflector + CCD.
(807) Cerro Tololo Observatory, La Serena  (S30.169136 W70.805900)  Chile.
   1.5-m Ritchey-Chrétien.
(F51) Pan-STARRS 1, Haleakala  (N20.707235 W156.255910)  US/Hawaii.
   Observers N. Primak, A. Schultz, S. Watters, J. Thiel, T. Goggia. Measurer
   PS1 Science Consortium. 1.8-m Ritchey-Chrétien + CCD.

Orbital elements:  P10Lckm
   Perihelion 2018 Sep 6.944454 +/- 0.633 TT = 22:40:00 (JD 2458368.444454)
Epoch 2019 Jan 12.0 TT = JDT 2458495.5   Earth MOID: 0.3016   Ma: 0.0026
M  57.63364114 +/- 0.39             (J2000 ecliptic)          AutoNEOCP
n   0.45360980 +/- 0.00484          Peri.  258.46165 +/- 0.09
a   1.67757171 +/- 0.0119           Node   123.49937 +/- 0.0040
e   0.3330114 +/- 0.00325           Incl.   24.01959 +/- 0.43
P   2.17/793.62d           H 21.8   G  0.15   U  9.2  
q 1.11892112 +/- 0.00279    Q 2.23622230 +/- 0.0215
From 12 observations 2019 Jan. 8-12; mean residual 0".10
Residuals in arcseconds: 
190108 F51  .20-  .13+    190109 807  .09-  .11-    190110 807  .10-  .11+    
190108 F51  .17+  .08-    190109 807  .00   .07-    190112 291  .02+  .05+    
190108 F51  .06+  .03+    190110 807  .07+  .09-    190112 291  .12-  .03-    
190109 807  .08-  .07-    190110 807  .19+  .18+    190112 291  .06+  .05-    

Ephemerides (geocentric):
Date (UTC) HH   RA              Dec         delta   r     elong  mag " sig PA
---- -- -- --  -------------   -----------  ------ ------ -----  --- ---- ---
2019 01 12 22  08 43 09.415   +12 19 51.09  .58394 1.5482 161.4 22.2 .266 104
2019 01 12 23  08 43 05.596   +12 21 29.76  .58399 1.5484 161.5 22.2 .280 104
2019 01 13 00  08 43 01.774   +12 23 08.43  .58405 1.5486 161.5 22.2 .294 104
2019 01 13 01  08 42 57.949   +12 24 47.10  .58410 1.5488 161.6 22.2 .308 103
2019 01 13 02  08 42 54.122   +12 26 25.78  .58416 1.5490 161.7 22.2 .322 103
2019 01 13 03  08 42 50.292   +12 28 04.46  .58421 1.5492 161.8 22.2 .336 103
2019 01 13 04  08 42 46.460   +12 29 43.14  .58427 1.5494 161.8 22.2 .351 103
2019 01 13 05  08 42 42.625   +12 31 21.82  .58432 1.5496 161.9 22.2 .366 103
2019 01 13 06  08 42 38.788   +12 33 00.50  .58438 1.5498 162.0 22.2 .381 103
2019 01 13 07  08 42 34.948   +12 34 39.18  .58444 1.5499 162.0 22.2 .396 103
2019 01 13 08  08 42 31.106   +12 36 17.86  .58449 1.5501 162.1 22.2 .411 102
2019 01 13 09  08 42 27.261   +12 37 56.54  .58455 1.5503 162.2 22.2 .426 102
2019 01 13 10  08 42 23.414   +12 39 35.22  .58461 1.5505 162.2 22.2 .442 102
2019 01 13 11  08 42 19.564   +12 41 13.90  .58467 1.5507 162.3 22.2 .457 102
2019 01 13 12  08 42 15.712   +12 42 52.57  .58473 1.5509 162.4 22.2 .473 102
2019 01 13 13  08 42 11.857   +12 44 31.25  .58479 1.5511 162.4 22.2 .489 102
2019 01 13 14  08 42 08.000   +12 46 09.93  .58485 1.5513 162.5 22.2 .505 102
2019 01 13 15  08 42 04.140   +12 47 48.60  .58491 1.5515 162.6 22.2 .522 101
2019 01 13 16  08 42 00.278   +12 49 27.27  .58497 1.5517 162.6 22.2 .538 101
2019 01 13 17  08 41 56.414   +12 51 05.94  .58503 1.5519 162.7 22.2 .555 101
2019 01 13 18  08 41 52.548   +12 52 44.61  .58510 1.5521 162.8 22.2 .572 101
2019 01 13 19  08 41 48.679   +12 54 23.27  .58516 1.5523 162.8 22.2 .588 101
2019 01 13 20  08 41 44.807   +12 56 01.93  .58522 1.5525 162.9 22.2 .605 101
2019 01 13 21  08 41 40.934   +12 57 40.59  .58529 1.5527 163.0 22.2 .623 101
2019 01 13 22  08 41 37.058   +12 59 19.24  .58535 1.5529 163.1 22.2 .640 100
2019 01 13 23  08 41 33.179   +13 00 57.89  .58541 1.5531 163.1 22.2 .657 100
2019 01 14 00  08 41 29.299   +13 02 36.54  .58548 1.5532 163.2 22.2 .675 100
2019 01 14 01  08 41 25.416   +13 04 15.18  .58554 1.5534 163.3 22.2 .693 100
2019 01 14 02  08 41 21.531   +13 05 53.81  .58561 1.5536 163.3 22.2 .711 100
2019 01 14 03  08 41 17.644   +13 07 32.45  .58568 1.5538 163.4 22.2 .729 100
2019 01 14 04  08 41 13.754   +13 09 11.07  .58574 1.5540 163.5 22.2 .747 100
2019 01 14 05  08 41 09.862   +13 10 49.69  .58581 1.5542 163.5 22.2 .765 100
2019 01 14 06  08 41 05.968   +13 12 28.31  .58588 1.5544 163.6 22.2 .783  99
2019 01 14 07  08 41 02.072   +13 14 06.92  .58595 1.5546 163.7 22.2 .802  99
2019 01 14 08  08 40 58.174   +13 15 45.52  .58602 1.5548 163.7 22.2 .820  99
2019 01 14 09  08 40 54.273   +13 17 24.12  .58609 1.5550 163.8 22.2 .839  99
2019 01 14 10  08 40 50.371   +13 19 02.71  .58616 1.5552 163.9 22.2 .858  99
2019 01 14 11  08 40 46.466   +13 20 41.29  .58623 1.5554 163.9 22.2 .877  99
2019 01 14 12  08 40 42.559   +13 22 19.87  .58630 1.5556 164.0 22.2 .896  99
2019 01 14 13  08 40 38.650   +13 23 58.44  .58637 1.5558 164.1 22.2 .915  98
2019 01 14 14  08 40 34.739   +13 25 37.00  .58644 1.5560 164.1 22.2 .935  98
2019 01 14 15  08 40 30.825   +13 27 15.55  .58651 1.5562 164.2 22.2 .954  98
2019 01 14 16  08 40 26.910   +13 28 54.09  .58659 1.5563 164.3 22.2 .974  98
2019 01 14 17  08 40 22.993   +13 30 32.63  .58666 1.5565 164.3 22.2 0.99  98
2019 01 14 18  08 40 19.073   +13 32 11.16  .58673 1.5567 164.4 22.2 1.01  98
2019 01 14 19  08 40 15.152   +13 33 49.67  .58681 1.5569 164.5 22.2 1.03  98
2019 01 14 20  08 40 11.228   +13 35 28.18  .58688 1.5571 164.6 22.2 1.05  98
2019 01 14 21  08 40 07.303   +13 37 06.68  .58696 1.5573 164.6 22.2 1.07  97